Location: Lourdes
(43.1000°N, 0.0500°W)
Time: 10:08:10
(UTC+00:00)

Cosmos 1943 Rocket - Pass Details

Date: 30 November 2020
Orbit: 811 x 845 km, 71.0° (Epoch: 25 January)

Event Time Altitude Azimuth Distance (km) Brightness Sun altitude
Rises 18:12:02 0° 331° (NNW) 3,359 5.5 -18.7°
Reaches altitude 10° 18:14:30 10° 327° (NNW) 2,427 4.8 -19.2°
Maximum altitude 18:19:55 56° 251° (WSW) 984 2.8 -20.2°
Drops below altitude 10° 18:25:21 10° 174° (S) 2,433 4.6 -21.1°
Sets 18:27:49 0° 170° (S) 3,368 5.3 -21.6°
